Pittsburgh, PA

7:12 PM EDT on September 26, 2016 (GMT -0400)
Allegheny County

Weather History for KAGC - May, 2013

Change the Weather History Date:

Sunday, May 5, 2013

  Actual Average Record
Temperature  
Mean Temperature 62 °F -  
Max Temperature 73 °F 66 °F 82 °F (1999)
Min Temperature 50 °F 46 °F 33 °F (1971)
Degree Days  
Heating Degree Days 4    
Growing Degree Days 12 (Base 50)    
Moisture  
Dew Point 31 °F    
Average Humidity 37    
Maximum Humidity 66    
Minimum Humidity 14    
Precipitation  
Precipitation 0.00 in - - ()
Sea Level Pressure  
Sea Level Pressure 30.10 in    
Wind  
Wind Speed 9 mph (ESE)    
Max Wind Speed 16 mph    
Max Gust Speed 24 mph    
Visibility 10 miles    
Events      
Averages and records for this station are not official NWS values.
T = Trace of Precipitation, MM = Missing Value Source: NWS Daily Summary

Daily Weather History Graph

Daily Weather History Graph

Search for Another Location

Airport or City:

Trip Planner

Search our weather history database for the weather conditions in past years. The results will help you decide how hot, cold, wet, or windy it might be!

Date:

Astronomy

May. 05, 2013 Rise Set
Actual Time 6:13 AM EDT 8:19 PM EDT
Civil Twilight 5:43 AM EDT 8:49 PM EDT
Nautical Twilight 5:07 AM EDT 9:26 PM EDT
Astronomical Twilight 4:27 AM EDT 10:06 PM EDT
Moon 3:44 AM EDT (5/5) 4:16 PM EDT (5/5)
Length of Visible Light 15h 05m
Length of Day
14h 05m
Waning Crescent, 18% of the Moon is Illuminated
May 5
Waning Crescent
May 9
New
May 18
First Quarter
May 25
Full
May 31
Last Quarter

Hourly Weather History & Observations

Time (EDT) Temp. Dew Point Humidity Pressure Visibility Wind Dir Wind Speed Gust Speed Precip Events Conditions
12:53 AM 57.0 °F 39.0 °F 51% 30.16 in 10.0 mi ESE 6.9 mph - N/A   Clear
1:53 AM 55.9 °F 39.0 °F 53% 30.14 in 10.0 mi ESE 8.1 mph - N/A   Clear
2:53 AM 55.0 °F 39.0 °F 55% 30.13 in 10.0 mi ESE 8.1 mph - N/A   Clear
3:53 AM 53.1 °F 39.9 °F 61% 30.13 in 10.0 mi ESE 5.8 mph - N/A   Clear
4:53 AM 51.1 °F 39.0 °F 63% 30.13 in 10.0 mi East 8.1 mph - N/A   Clear
5:53 AM 50.0 °F 39.0 °F 66% 30.13 in 10.0 mi East 9.2 mph - N/A   Clear
6:53 AM 51.1 °F 39.0 °F 63% 30.14 in 10.0 mi East 9.2 mph - N/A   Clear
7:53 AM 52.0 °F 37.9 °F 59% 30.14 in 10.0 mi East 6.9 mph - N/A   Clear
8:53 AM 55.0 °F 39.0 °F 55% 30.14 in 10.0 mi ESE 8.1 mph - N/A   Clear
9:53 AM 57.9 °F 37.0 °F 46% 30.13 in 10.0 mi East 6.9 mph - N/A   Clear
10:53 AM 62.1 °F 34.0 °F 35% 30.12 in 10.0 mi ESE 11.5 mph 19.6 mph N/A   Clear
11:53 AM 64.9 °F 28.0 °F 25% 30.11 in 10.0 mi ESE 15.0 mph 23.0 mph N/A   Clear
12:53 PM 68.0 °F 27.0 °F 21% 30.10 in 10.0 mi SE 16.1 mph 23.0 mph N/A   Clear
1:53 PM 69.8 °F 28.4 °F 21% 30.07 in 10.0 mi East 12.7 mph 24.2 mph N/A   Clear
2:50 PM 71.6 °F 24.8 °F 17% 30.07 in 10.0 mi ESE 11.5 mph 21.9 mph N/A   Clear
2:53 PM 71.1 °F 25.0 °F 18% 30.06 in 10.0 mi SE 9.2 mph 18.4 mph N/A   Clear
3:53 PM 73.0 °F 25.0 °F 17% 30.04 in 10.0 mi East 8.1 mph 21.9 mph N/A   Clear
4:53 PM 72.0 °F 24.1 °F 17% 30.03 in 10.0 mi East 15.0 mph 23.0 mph N/A   Clear
5:53 PM 72.0 °F 23.0 °F 16% 30.03 in 10.0 mi East 11.5 mph 19.6 mph N/A   Clear
6:53 PM 70.0 °F 19.0 °F 14% 30.04 in 10.0 mi SE 8.1 mph 17.3 mph N/A   Clear
7:53 PM 66.0 °F 19.9 °F 17% 30.05 in 10.0 mi ESE 13.8 mph 21.9 mph N/A   Clear
8:53 PM 63.0 °F 23.0 °F 22% 30.06 in 10.0 mi ESE 11.5 mph - N/A   Clear
9:53 PM 60.1 °F 27.0 °F 28% 30.08 in 10.0 mi ESE 8.1 mph - N/A   Clear
10:53 PM 57.9 °F 32.0 °F 37% 30.09 in 10.0 mi ESE 8.1 mph - N/A   Clear
11:53 PM 55.9 °F 35.1 °F 45% 30.09 in 10.0 mi ESE 8.1 mph - N/A   Clear